Location: Chomutov
(50.4500°N, 13.4333°E)
Time: 01:59:48
(UTC+02:00)

FO-29 - Pass Details

Date: 04 October 2021
Orbit: 800 x 1321 km, 98.6° (Epoch: 27 October)

Event Time Altitude Azimuth Distance (km) Brightness Sun altitude
Exits shadow 21:41:18 47° 175° (S) 1,700 10.4 -29.0°
Maximum altitude 21:43:59 82° 255° (WSW) 1,340 10.1 -29.3°
Drops below altitude 10° 21:51:48 10° 344° (NNW) 3,301 12.8 -30.4°
Sets 21:54:27 0° 346° (NNW) 4,234 13.5 -30.7°
